Location: Oriwa
(40.7500°S, 175.3333°E)
Time: 17:59:42
(UTC+00:00)

Cosmos 1464 Rocket - Visible Passes

Search period start: 28 May 2024 00:00
Search period end: 07 June 2024 00:00
Orbit: 952 x 1000 km, 82.9° (Epoch: 27 May)

Date Brightness Start Highest point End Pass type
(mag) Time Alt. Az. Time Alt. Az. Time Alt. Az.
28 May 6.8 17:53:29 10° SE 17:55:24 11° ESE 17:57:20 10° E visible
29 May 6.4 18:16:56 10° SSE 18:21:38 21° ESE 18:26:21 10° ENE visible
30 May 5.6 18:41:49 10° S 18:47:40 38° ESE 18:53:31 10° NE visible
01 Jun 6.5 17:48:52 10° SSE 17:53:10 19° ESE 17:57:28 10° ENE visible
02 Jun 5.7 18:13:34 10° S 18:19:14 33° ESE 18:24:54 10° NE visible
03 Jun 5.7 07:42:33 10° N 07:44:09 19° N 07:44:09 19° N visible
03 Jun 4.7 18:38:49 10° S 18:45:07 59° E 18:51:23 10° NNE visible
04 Jun 5.8 06:25:36 10° ENE 06:26:10 12° ENE 06:26:10 12° ENE visible
04 Jun 5.4 08:08:14 10° NNW 08:10:56 28° NNW 08:10:56 28° NNW visible
04 Jun 6.6 17:20:51 10° SSE 17:24:40 16° ESE 17:28:28 10° ENE visible
04 Jun 4.1 19:04:25 10° S 19:10:49 79° W 19:17:11 10° N visible
05 Jun 4.9 06:49:27 10° NNE 06:53:00 28° ENE 06:53:00 28° ENE visible
05 Jun 5.7 08:34:36 10° NW 08:37:47 26° WNW 08:37:47 26° WNW visible
05 Jun 5.9 17:45:21 10° SSE 17:50:48 29° ESE 17:56:14 10° NE visible
06 Jun 3.9 07:14:15 10° N 07:19:55 61° ENE 07:19:55 61° ENE visible
06 Jun 6.2 09:01:51 10° WNW 09:04:41 18° W 09:04:41 18° W visible
06 Jun 4.9 18:10:30 10° S 18:16:43 51° ESE 18:22:55 10° NNE visible
